Regional Weather Roundup
Issued by NWS Northern Indiana

Home | Current Version | Previous Version | Text Only | Print | Product List | Glossary On
Versions: 1 2 3 4 5 6 7 8 9 10 11 12 13 14 15 16 17 18 19 20 21 22 23 24 25 26 27 28 29 30 31 32 33 34 35 36 37 38 39 40 41 42 43 44 45 46 47 48 49 50
000
ASUS43 KIWX 230810
RWRIWX

KIWX WEATHER ROUNDUP
NATIONAL WEATHER SERVICE NORTHERN INDIANA
400 AM EDT WED AUG 23 2017

NOTE: "FAIR" INDICATES FEW OR NO CLOUDS BELOW 12,000 FEET WITH NO
SIGNIFICANT WEATHER AND/OR OBSTRUCTIONS TO VISIBILITY.

* THESE STATIONS ARE NOT UNDER NWS QUALITY CONTROL. THEY ALSO MAY NOT
  REPORT WEATHER SUCH AS PRECIPITATION OR FOG.

INZ001>027-230900-
NORTHERN INDIANA

CITY           SKY/WX    TMP DP  RH WIND       PRES   REMARKS
GARY*          CLEAR     61  51  70 W5        30.02S
VALPARAISO     CLEAR     62  54  74 NW6       30.01S
MICHIGAN CITY* CLEAR     66  52  59 NW6       30.00S
LAPORTE*       PTCLDY    59  53  82 W3        30.01S
KNOX*          CLEAR     55  54  94 W3        30.00S
SOUTH BEND     CLEAR     57  56  96 W5        30.00S
GOSHEN         CLEAR     56  52  86 CALM      29.99R
MONTICELLO*    PTCLDY    57  56  95 NW3       30.01S
LOGANSPORT*    CLEAR     57  55  94 W5        30.02S
ROCHESTER*     CLEAR     61  59  94 NW6       30.01S
WARSAW*        CLEAR     57  57 100 CALM      30.00S
AUBURN*        CLEAR     57  54  88 CALM      29.99R
FORT WAYNE     CLEAR     56  53  90 W6        29.99S
HUNTINGTON*    CLEAR     58  57  96 W6        30.00S
PERU/GRISSOM   CLEAR     60  60 100 W3        30.00S

$$
INZ028>050-230900-
CENTRAL INDIANA

CITY           SKY/WX    TMP DP  RH WIND       PRES   REMARKS
LAFAYETTE      CLEAR     57  57 100 CALM      30.01S
KOKOMO*        MOCLDY    60  58  92 W5        30.02S
MUNCIE*        CLEAR     57  54  89 CALM      30.00S FOG
INDIANAPOLIS   MOCLDY    61  58  90 NW8       30.00S

$$
MIZ043>046-050>051-056>058-064>065-071>073-077>080-230900-
SOUTHWEST LOWER MICHIGAN

CITY           SKY/WX    TMP DP  RH WIND       PRES   REMARKS
BATTLE CREEK   MOCLDY    62  54  74 W9        29.96S
BENTON HARBOR  CLEAR     69  52  54 VRB7      29.98R
COLDWATER*     CLEAR     56  56 100 W5        29.96S
HILLSDALE*     CLEAR     55  52  88 W5        29.96S
HOLLAND        CLEAR     66  52  60 NW5       29.96R
GRAND RAPIDS   PTCLDY    61  55  81 W6        29.94S
KALAMAZOO      CLOUDY    62  52  69 W7        29.97R
STURGIS*       CLEAR     55  55  97 CALM      29.97S
THREE RIVERS*  FAIR      59  54  84 W3        29.97S

$$
OHZ001>008-015>018-024>025-230900-
NORTHWEST OHIO

CITY           SKY/WX    TMP DP  RH WIND       PRES   REMARKS
WAUSEON*       FAIR      55  54  94 W3        29.96S
DEFIANCE       CLEAR     55  53  93 CALM      29.97S
FINDLAY        CLEAR     58  52  80 W3        29.96R
TOLEDO EXPRESS CLEAR     57  55  93 W6        29.95S
TOLEDO METCALF CLEAR     57  54  89 W6        29.95S
LIMA           CLEAR     57  55  93 W5        29.98S

$$
AND FOR LAKE MICHIGAN COASTAL AND OPEN LAKE BUOY OBSERVATIONS

STATION/POSITION TEMP    WIND        PRES    VSBY  WAVE
                 AIR SEA DIR/SP/G                  HT/PER
                 (F)     (DEG/KT/KT) (MB)    (MI)  (FT/S)
CALUMET HARBOR    64     280/  2/  6 1015.6R
MICHIGAN CITY     70     300/ 19/ 21   N/A
BURNS HARBOR      71     320/ 17/ 20 1015.9S
SAINT JOSEPH      71     330/ 13/ 16 1015.9
SOUTH LAKE BUOY   68 71  320/ 16/ 17 1014.7R         4/ 5
4 MI NW BRIDGMAN  71 73  350/ 16/ 19 1015.3          6/ 5
MICHIGAN CITY     71 73  320/ 16/ 21   N/A           5/ 5

$$
&&




USA.gov is the U.S. government's official web portal to all federal, state and local government web resources and services.